Regional Weather Roundup
Issued by NWS

Home | Current Version | Previous Version | Graphics & Text | Print | Product List | Glossary Off
Versions: 1 2 3 4 5 6 7 8 9 10 11 12 13 14 15 16 17 18 19 20 21 22 23 24 25 26 27 28 29 30 31 32 33 34 35 36 37 38 39 40 41 42 43 44 45 46 47 48 49 50

965
ASUS43 KDTX 220401
RWRMI
MICHIGAN HOURLY REGIONAL WEATHER ROUNDUP
NATIONAL WEATHER SERVICE DETROIT/PONTIAC MI
1200 AM EDT FRI MAY 22 2015

NOTE: "FAIR" INDICATES FEW OR NO CLOUDS BELOW 12,000 FEET WITH NO
SIGNIFICANT WEATHER AND/OR OBSTRUCTION TO VISIBILITY.

MIZ047>049-052>055-059>063-066>070-074>076-081>083-220500-
SOUTHEAST LOWER MICHIGAN

CITY           SKY/WX    TMP DP  RH WIND       PRES   REMARKS
ADRIAN         PTCLDY    51  35  54 W5        30.02S
ALMA           CLOUDY    55  40  58 NW6       30.00R
ANN ARBOR      MOCLDY    47  38  71 SW6       30.00S
BAD AXE        CLOUDY    48  37  64 CALM      29.97R
CARO           MOCLDY    54  40  60 W6        29.97R
DETROIT CITY   MOCLDY    58  33  39 W9        29.98F
DETROIT        MOCLDY    57  35  43 SW8       30.00S
FLINT          CLOUDY    57  39  51 SW6       29.98R
GROSSE ILE     PTCLDY    55  36  47 W5        29.99S
HILLSDALE      MOCLDY    54  34  46 W6        30.02S
HOWELL         CLOUDY    53  36  51 SW3       29.99S

CITY           SKY/WX    TMP DP  RH WIND       PRES   REMARKS
JACKSON        CLOUDY    51  39  63 SW7       30.00F
LAMBERTVILLE   CLEAR     52  36  54 CALM      30.02S
LANSING        CLOUDY    55  39  54 SW9       29.99F
LAPEER         CLOUDY    56  36  47 W3        29.97R
MASON          CLOUDY    51  38  59 CALM      29.99S
MONROE         CLEAR     52  36  54 W3        30.00S
MT. CLEMENS    MOCLDY    58  35  42 W8        29.95S
PONTIAC        PTCLDY    55  35  47 W9        29.98R
PORT HOPE        N/A     50  39  66 N8        29.95R
PORT HURON     MOCLDY    54  37  54 CALM      29.96R
TRI CITIES     MOCLDY    57  35  43 NW8       29.99R
MIDLAND        MOCLDY    55  31  40 NW8       29.99R
TROY           MOCLDY    58  34  40 W5        30.00S
SAGINAW HB     MOCLDY    55  36  47 NW9       29.98R
$$
MIZ043>046-050>051-056>058-064>065-071>073-077>080-220500-
SOUTHWEST LOWER MICHIGAN

CITY           SKY/WX    TMP DP  RH WIND       PRES   REMARKS
BATTLE CREEK   CLOUDY    55  37  50 SW10      30.00S
BENTON HARBOR  PTCLDY    54  36  50 SW6       30.01S
BIG RAPIDS     MOCLDY    51  22  32 N6        30.02R
COLDWATER      CLEAR     51  33  51 SW7       30.02S
FREMONT        CLOUDY    53  37  56 CALM      30.01R
HOLLAND        CLOUDY    53  39  59 W12       30.01R
GRAND RAPIDS   LGT RAIN  55  43  63 SW8       30.00R
IONIA          CLOUDY    56  40  56 W10       29.98R
KALAMAZOO      MOCLDY    53  36  52 SW7       30.01S
LUDINGTON      PTCLDY    51  28  41 NE6       30.04R
MARSHALL       CLOUDY    54  37  51 SW5       30.00R
MOUNT PLEASANT PTCLDY    51  31  46 NW3       30.01R
MUSKEGON       CLOUDY    52  43  71 N7        30.01R
SOUTH HAVEN    CLOUDY    59  34  38 SW8       30.01R
$$
MIZ016>042-220500-
NORTHERN LOWER MICHIGAN

CITY           SKY/WX    TMP DP  RH WIND       PRES   REMARKS
ALPENA         CLEAR     45  28  51 W5        29.98R
BEAVER ISLAND  CLEAR     42  30  61 NW5       30.04R
BELLAIRE       CLEAR     35  32  88 CALM      30.04R
CADILLAC       CLEAR     44  27  52 CALM      30.03R
CHARLEVOIX     CLEAR     40  29  66 CALM      30.06R
FRANKFORT      CLEAR     47  24  39 CALM      30.05R
GAYLORD        CLEAR     40  29  64 CALM      30.01R
HARBOR SPRINGS CLEAR     39  35  87 SW5       30.02S
HOUGHTON LAKE  CLEAR     45  27  49 NW7       30.02R
MANISTEE       PTCLDY    45  27  49 E3        30.04R
OSCODA         CLEAR     50  28  41 NW13G18   29.96R
PELLSTON       CLEAR     36  28  73 W6        30.02R WCI  31
ROGERS CITY    CLEAR     45  26  48 W8        29.98S
TRAVERSE CITY  CLEAR     40  32  73 CALM      30.03S
$$
MIZ007>008-015-220500-
EASTERN UPPER MICHIGAN

CITY           SKY/WX    TMP DP  RH WIND       PRES   REMARKS
KINROSS        CLEAR     41  27  56 NW13      29.98R
NEWBERRY       CLEAR     39  25  56 NW7       30.02R WCI  34
S. S. MARIE    CLEAR     39  28  64 W5        29.98R
$$
MIZ004>006-011>014-085-220500-
CENTRAL UPPER MICHIGAN

CITY           SKY/WX    TMP DP  RH WIND       PRES   REMARKS
MANISTIQUE     CLEAR     37  22  54 NW6       30.04S WCI  33
ESCANABA       CLEAR     45  21  39 N3        30.05R
MENOMINEE      CLEAR     43  34  70 CALM      30.06R
SAWYER-GWINN   CLEAR     43  13  29 N10       30.06R
$$
MIZ001>003-009>011-084-220500-
WESTERN UPPER MICHIGAN

CITY           SKY/WX    TMP DP  RH WIND       PRES   REMARKS
IRON MOUNTAIN  CLEAR     46  24  42 CALM      30.06R
HOUGHTON       CLEAR     39  24  55 CALM      30.06R
COPPER HARBOR    N/A     39  29  67 CALM      30.07R
IRONWOOD       CLEAR     41  36  81 CALM      30.04R
$$

ABBREVIATIONS USED IN REMARKS
   TC - TEMPERATURE IN CELSIUS
  WCI - WIND CHILL INDEX
   HX - HEAT INDEX
  VSB - VISIBILITY




USA.gov is the U.S. government's official web portal to all federal, state and local government web resources and services.